Tacoma Narrows, WA
on Monday, January 28, 2013

Monday
Previous Day Next Day
Daily Summary
 ActualAverageRecord
Temperature
Mean Temperature °F °F  
Max Temperature 44°F 46°F 55°F (1998)
Min Temperature 39°F 38°F 30°F (2002)
Degree Days
Heating Degree Days 24    
Moisture
Dew Point 37°F   
Average Humidity 83    
Maximum Humidity 89    
Minimum Humidity 79    
Precipitation
Precipitation 0.04 in in in ()
Wind
Wind Speed 6 mph   
Max Wind Speed 12 mph   
Max Gust Speed 16 mph   
Visibility 10 miles   
Events Rain   
Averages and records for this station are not official NWS values.
Key: T is trace of precipitation, MM is missing value
Source: NWS Daily Summary
Seasonal Weather Averages
Time(PST)TemperatureDew PointHumidity Pressure Visibility Wind DirectionWind SpeedGust SpeedPrecipitationEvents Conditions
12:53 AM 39.9°F 37.0°F 89% 30.02 in 10.0 miles SW 4.6 mph - N/A   Overcast
1:51 AM 39.2°F 35.6°F 87% 30.02 in 10.0 miles SSW 6.9 mph - N/A   Overcast
1:53 AM 39.9°F 36.0°F 86% 30.03 in 10.0 miles SSW 5.8 mph - N/A   Overcast
2:15 AM 39.2°F 35.6°F 87% 30.01 in 10.0 miles SSW 6.9 mph - N/A   Scattered Clouds
2:34 AM 39.2°F 35.6°F 87% 30.02 in 10.0 miles SSW 4.6 mph - N/A   Mostly Cloudy
2:53 AM 39.9°F 35.1°F 83% 30.04 in 10.0 miles SSW 5.8 mph - N/A   Mostly Cloudy
3:53 AM 39.9°F 36.0°F 86% 30.04 in 10.0 miles South 3.5 mph - N/A   Overcast
4:53 AM 39.9°F 36.0°F 86% 30.05 in 10.0 miles South 5.8 mph - N/A   Overcast
5:06 AM 39.2°F 35.6°F 87% 30.04 in 10.0 miles SSW 4.6 mph - N/A   Overcast
5:30 AM 39.2°F 35.6°F 87% 30.04 in 10.0 miles SSW 8.1 mph - N/A   Overcast
5:48 AM 39.2°F 35.6°F 87% 30.04 in 10.0 miles SSW 6.9 mph - N/A   Mostly Cloudy
5:53 AM 39.9°F 35.1°F 83% 30.05 in 10.0 miles SSW 5.8 mph - N/A   Mostly Cloudy
6:53 AM 39.9°F 34.0°F 79% 30.07 in 10.0 miles SSW 10.4 mph - N/A   Mostly Cloudy
7:25 AM 39.2°F 35.6°F 87% 30.06 in 10.0 miles SW 4.6 mph - N/A   Overcast
7:53 AM 39.0°F 35.1°F 86% 30.08 in 10.0 miles SSW 3.5 mph - N/A   Overcast
9:53 AM 41.0°F 35.1°F 79% 30.08 in 10.0 miles SSW 8.1 mph - N/A   Overcast
10:53 AM 42.1°F 36.0°F 79% 30.09 in 10.0 miles Variable 4.6 mph - N/A   Overcast
11:53 AM 43.0°F 37.0°F 80% 30.08 in 10.0 miles South 6.9 mph - N/A   Overcast
12:49 PM 42.8°F 37.4°F 81% 30.06 in 9.0 miles South 8.1 mph - 0.02 in Rain Light Rain
12:53 PM 42.1°F 37.9°F 85% 30.06 in 10.0 miles SSW 10.4 mph - 0.02 in Rain Light Rain
1:28 PM 42.8°F 37.4°F 81% 30.05 in 10.0 miles South 8.1 mph - 0.00 in   Overcast
1:42 PM 42.8°F 37.4°F 81% 30.04 in 10.0 miles South 6.9 mph - 0.00 in   Overcast
1:53 PM 42.1°F 37.9°F 85% 30.05 in 10.0 miles South 9.2 mph - 0.00 in   Overcast
2:53 PM 43.0°F 37.9°F 82% 30.03 in 10.0 miles SSW 11.5 mph - N/A   Overcast
3:19 PM 42.8°F 37.4°F 81% 30.02 in 10.0 miles SSW 10.4 mph - N/A   Overcast
3:53 PM 44.1°F 37.9°F 79% 30.04 in 10.0 miles SW 9.2 mph - N/A   Overcast
4:53 PM 44.1°F 37.9°F 79% 30.04 in 10.0 miles SW 8.1 mph - N/A   Overcast
5:53 PM 43.0°F 37.0°F 80% 30.05 in 10.0 miles SSW 9.2 mph - N/A   Overcast
6:53 PM 43.0°F 37.0°F 80% 30.05 in 10.0 miles SW 11.5 mph 16.1 mph 0.01 in   Overcast
7:53 PM 43.0°F 37.0°F 80% 30.05 in 10.0 miles SSW 6.9 mph - N/A   Overcast
8:53 PM 43.0°F 37.0°F 80% 30.06 in 10.0 miles SW 5.8 mph - N/A   Overcast
9:53 PM 43.0°F 37.9°F 82% 30.07 in 10.0 miles South 6.9 mph - 0.00 in   Overcast
10:53 PM 43.0°F 37.9°F 82% 30.09 in 10.0 miles SSW 3.5 mph - 0.00 in Rain Light Rain
11:53 PM 43.0°F 39.0°F 86% 30.10 in 10.0 miles SSW 4.6 mph - 0.01 in Rain Light Rain
Moon Phase
Jan. 28 Feb. 03 Feb. 10 Feb. 17 Feb. 25
Sunrise:07:40 AM (PST) Moon Rise:07:19 PM (PST)1/28
Sunset:05:06 PM (PST) Moon Set:07:58 AM (PST)1/28

Copyright © 2014 The Weather Underground, Inc.